Tracking 30402 objects as of 13-May-2025
HD Live streaming from Space Station
objects crossing your sky now

TITAN 4B DEB

Track TITAN 4B DEB now!
10-day predictions


NORAD ID: 40528
Int'l Code: 2000-047E
Perigee: 551.1 km
Apogee: 626.1 km
Inclination: 68.0 °
Period: 96.3 minutes
Semi major axis: 6959 km
RCS: Unknown
Launch date: August 17, 2000
Source: United States (US)
Launch site: AIR FORCE WESTERN TEST RANGE (AFWTR)

Note: This is SATELLITE DEBRIS
Your satellite tracking list
Your tracking list is empty




NASA's NSSDC Master Catalog

Two Line Element Set (TLE):
1 40528U 00047E   25132.56271884  .00000605  00000-0  64266-4 0  9993
2 40528  67.9946 240.7010 0053851  45.0863 329.7437 14.95297628552723
Source of the keplerian elements: AFSPC